Year,Month,Day,Hour,Minute,Value (Times are PST for temperature in C)
2017,09,16,00,00,12.60
2017,09,16,00,01,12.60
2017,09,16,00,02,12.60
2017,09,16,00,03,12.60
2017,09,16,00,04,12.60
2017,09,16,00,05,12.50
2017,09,16,00,06,12.60
2017,09,16,00,07,12.60
2017,09,16,00,08,12.60
2017,09,16,00,09,12.60
2017,09,16,00,10,12.60
2017,09,16,00,11,12.60
2017,09,16,00,12,12.60
2017,09,16,00,13,12.60
2017,09,16,00,14,12.60
2017,09,16,00,15,12.50
2017,09,16,00,16,12.50
2017,09,16,00,17,12.40
2017,09,16,00,18,12.40
2017,09,16,00,19,12.30
2017,09,16,00,20,12.30
2017,09,16,00,21,12.30
2017,09,16,00,22,12.30
2017,09,16,00,23,12.30
2017,09,16,00,24,12.30
2017,09,16,00,25,12.20
2017,09,16,00,26,12.20
2017,09,16,00,27,12.20
2017,09,16,00,28,12.20
2017,09,16,00,29,12.20
2017,09,16,00,30,12.20
2017,09,16,00,31,12.20
2017,09,16,00,32,12.20
2017,09,16,00,33,12.20
2017,09,16,00,34,12.20
2017,09,16,00,35,12.30
2017,09,16,00,36,12.30
2017,09,16,00,37,12.30
2017,09,16,00,38,12.20
2017,09,16,00,39,12.20
2017,09,16,00,40,12.20
2017,09,16,00,41,12.20
2017,09,16,00,42,12.20
2017,09,16,00,43,12.20
2017,09,16,00,44,12.20
2017,09,16,00,45,12.20
2017,09,16,00,46,12.30
2017,09,16,00,47,12.30
2017,09,16,00,48,12.20
2017,09,16,00,49,12.20
2017,09,16,00,50,12.20
2017,09,16,00,51,12.30
2017,09,16,00,52,12.30
2017,09,16,00,53,12.30
2017,09,16,00,54,12.40
2017,09,16,00,55,12.40
2017,09,16,00,56,12.40
2017,09,16,00,57,12.50
2017,09,16,00,58,12.50
2017,09,16,00,59,12.60
2017,09,16,01,00,12.60
2017,09,16,01,01,12.60
2017,09,16,01,02,12.60
2017,09,16,01,03,12.60
2017,09,16,01,04,12.60
2017,09,16,01,05,12.60
2017,09,16,01,06,12.50
2017,09,16,01,07,12.50
2017,09,16,01,08,12.40
2017,09,16,01,09,12.40
2017,09,16,01,10,12.40
2017,09,16,01,11,12.30
2017,09,16,01,12,12.30
2017,09,16,01,13,12.30
2017,09,16,01,14,12.30
2017,09,16,01,15,12.30
2017,09,16,01,16,12.30
2017,09,16,01,17,12.40
2017,09,16,01,18,12.50
2017,09,16,01,19,12.50
2017,09,16,01,20,12.60
2017,09,16,01,21,12.70
2017,09,16,01,22,12.70
2017,09,16,01,23,12.70
2017,09,16,01,24,12.70
2017,09,16,01,25,12.70
2017,09,16,01,26,12.60
2017,09,16,01,27,12.60
2017,09,16,01,28,12.50
2017,09,16,01,29,12.50
2017,09,16,01,30,12.40
2017,09,16,01,31,12.30
2017,09,16,01,32,12.30
2017,09,16,01,33,12.20
2017,09,16,01,34,12.20
2017,09,16,01,35,12.00
2017,09,16,01,36,11.90
2017,09,16,01,37,11.90
2017,09,16,01,38,11.80
2017,09,16,01,39,11.80
2017,09,16,01,40,11.80
2017,09,16,01,41,11.80
2017,09,16,01,42,11.80
2017,09,16,01,43,11.80
2017,09,16,01,44,11.80
2017,09,16,01,45,11.80
2017,09,16,01,46,11.70
2017,09,16,01,47,11.70
2017,09,16,01,48,11.70
2017,09,16,01,49,11.70
2017,09,16,01,50,11.70
2017,09,16,01,51,11.60
2017,09,16,01,52,11.60
2017,09,16,01,53,11.60
2017,09,16,01,54,11.60
2017,09,16,01,55,11.60
2017,09,16,01,56,11.50
2017,09,16,01,57,11.50
2017,09,16,01,58,11.50
2017,09,16,01,59,11.50
2017,09,16,02,00,11.40
2017,09,16,02,01,11.40
2017,09,16,02,02,11.40
2017,09,16,02,03,11.40
2017,09,16,02,04,11.40
2017,09,16,02,05,11.30
2017,09,16,02,06,11.30
2017,09,16,02,07,11.30
2017,09,16,02,08,11.30
2017,09,16,02,09,11.30
2017,09,16,02,10,11.30
2017,09,16,02,11,11.30
2017,09,16,02,12,11.30
2017,09,16,02,13,11.20
2017,09,16,02,14,11.20
2017,09,16,02,15,11.20
2017,09,16,02,16,11.20
2017,09,16,02,17,11.20
2017,09,16,02,18,11.20
2017,09,16,02,19,11.10
2017,09,16,02,20,11.10
2017,09,16,02,21,11.10
2017,09,16,02,22,11.10
2017,09,16,02,23,11.10
2017,09,16,02,24,11.10
2017,09,16,02,25,11.10
2017,09,16,02,26,11.00
2017,09,16,02,27,11.00
2017,09,16,02,28,11.00
2017,09,16,02,29,11.00
2017,09,16,02,30,11.00
2017,09,16,02,31,10.90
2017,09,16,02,32,10.90
2017,09,16,02,33,10.90
2017,09,16,02,34,10.90
2017,09,16,02,35,10.90
2017,09,16,02,36,10.80
2017,09,16,02,37,10.80
2017,09,16,02,38,10.80
2017,09,16,02,39,10.80
2017,09,16,02,40,10.80
2017,09,16,02,41,10.80
2017,09,16,02,42,10.80
2017,09,16,02,43,10.80
2017,09,16,02,44,10.80
2017,09,16,02,45,10.80
2017,09,16,02,46,10.80
2017,09,16,02,47,10.80
2017,09,16,02,48,10.80
2017,09,16,02,49,10.80
2017,09,16,02,50,10.80
2017,09,16,02,51,10.80
2017,09,16,02,52,10.70
2017,09,16,02,53,10.70
2017,09,16,02,54,10.70
2017,09,16,02,55,10.60
2017,09,16,02,56,10.60
2017,09,16,02,57,10.60
2017,09,16,02,58,10.60
2017,09,16,02,59,10.60
2017,09,16,03,00,10.60
2017,09,16,03,01,10.50
2017,09,16,03,02,10.40
2017,09,16,03,03,10.40
2017,09,16,03,04,10.40
2017,09,16,03,05,10.30
2017,09,16,03,06,10.30
2017,09,16,03,07,10.20
2017,09,16,03,08,10.20
2017,09,16,03,09,10.10
2017,09,16,03,10,10.10
2017,09,16,03,11,10.00
2017,09,16,03,12,10.00
2017,09,16,03,13,10.00
2017,09,16,03,14,10.00
2017,09,16,03,15,10.00
2017,09,16,03,16,10.10
2017,09,16,03,17,10.10
2017,09,16,03,18,10.10
2017,09,16,03,19,10.10
2017,09,16,03,20,10.10
2017,09,16,03,21,10.10
2017,09,16,03,22,10.10
2017,09,16,03,23,10.10
2017,09,16,03,24,10.00
2017,09,16,03,25,10.00
2017,09,16,03,26,10.00
2017,09,16,03,27,10.10
2017,09,16,03,28,10.10
2017,09,16,03,29,10.10
2017,09,16,03,30,10.20
2017,09,16,03,31,10.20
2017,09,16,03,32,10.20
2017,09,16,03,33,10.20
2017,09,16,03,34,10.20
2017,09,16,03,35,10.20
2017,09,16,03,36,10.20
2017,09,16,03,37,10.20
2017,09,16,03,38,10.20
2017,09,16,03,39,10.10
2017,09,16,03,40,10.10
2017,09,16,03,41,10.10
2017,09,16,03,42,10.10
2017,09,16,03,43,10.00
2017,09,16,03,44,10.00
2017,09,16,03,45,10.00
2017,09,16,03,46,10.00
2017,09,16,03,47,10.00
2017,09,16,03,48,10.00
2017,09,16,03,49,10.00
2017,09,16,03,50,10.00
2017,09,16,03,51,10.00
2017,09,16,03,52,10.00
2017,09,16,03,53,9.90
2017,09,16,03,54,9.90
2017,09,16,03,55,9.90
2017,09,16,03,56,9.80
2017,09,16,03,57,9.80
2017,09,16,03,58,9.80
2017,09,16,03,59,9.80
2017,09,16,04,00,9.80
2017,09,16,04,01,9.80
2017,09,16,04,02,9.80
2017,09,16,04,03,9.80
2017,09,16,04,04,9.80
2017,09,16,04,05,9.80
2017,09,16,04,06,9.80
2017,09,16,04,07,9.80
2017,09,16,04,08,9.80
2017,09,16,04,09,9.70
2017,09,16,04,10,9.70
2017,09,16,04,11,9.70
2017,09,16,04,12,9.70
2017,09,16,04,13,9.70
2017,09,16,04,14,9.70
2017,09,16,04,15,9.70
2017,09,16,04,16,9.70
2017,09,16,04,17,9.70
2017,09,16,04,18,9.70
2017,09,16,04,19,9.70
2017,09,16,04,20,9.70
2017,09,16,04,21,9.70
2017,09,16,04,22,9.70
2017,09,16,04,23,9.70
2017,09,16,04,24,9.70
2017,09,16,04,25,9.70
2017,09,16,04,26,9.80
2017,09,16,04,27,9.70
2017,09,16,04,28,9.70
2017,09,16,04,29,9.70
2017,09,16,04,30,9.60
2017,09,16,04,31,9.60
2017,09,16,04,32,9.60
2017,09,16,04,33,9.60
2017,09,16,04,34,9.60
2017,09,16,04,35,9.60
2017,09,16,04,36,9.60
2017,09,16,04,37,9.60
2017,09,16,04,38,9.60
2017,09,16,04,39,9.60
2017,09,16,04,40,9.60
2017,09,16,04,41,9.60
2017,09,16,04,42,9.60
2017,09,16,04,43,9.60
2017,09,16,04,44,9.60
2017,09,16,04,45,9.60
2017,09,16,04,46,9.60
2017,09,16,04,47,9.60
2017,09,16,04,48,9.70
2017,09,16,04,49,9.70
2017,09,16,04,50,9.70
2017,09,16,04,51,9.70
2017,09,16,04,52,9.70
2017,09,16,04,53,9.70
2017,09,16,04,54,9.70
2017,09,16,04,55,9.70
2017,09,16,04,56,9.70
2017,09,16,04,57,9.70
2017,09,16,04,58,9.70
2017,09,16,04,59,9.60
2017,09,16,05,00,9.60
2017,09,16,05,01,9.60
2017,09,16,05,02,9.60
2017,09,16,05,03,9.60
2017,09,16,05,04,9.60
2017,09,16,05,05,9.60
2017,09,16,05,06,9.60
2017,09,16,05,07,9.60
2017,09,16,05,08,9.60
2017,09,16,05,09,9.60
2017,09,16,05,10,9.60
2017,09,16,05,11,9.60
2017,09,16,05,12,9.60
2017,09,16,05,13,9.60
2017,09,16,05,14,9.60
2017,09,16,05,15,9.60
2017,09,16,05,16,9.60
2017,09,16,05,17,9.60
2017,09,16,05,18,9.60
2017,09,16,05,19,9.60
2017,09,16,05,20,9.60
2017,09,16,05,21,9.60
2017,09,16,05,22,9.60
2017,09,16,05,23,9.60
2017,09,16,05,24,9.60
2017,09,16,05,25,9.60
2017,09,16,05,26,9.60
2017,09,16,05,27,9.60
2017,09,16,05,28,9.60
2017,09,16,05,29,9.60
2017,09,16,05,30,9.60
2017,09,16,05,31,9.50
2017,09,16,05,32,9.50
2017,09,16,05,33,9.50
2017,09,16,05,34,9.40
2017,09,16,05,35,9.40
2017,09,16,05,36,9.50
2017,09,16,05,37,9.50
2017,09,16,05,38,9.50
2017,09,16,05,39,9.50
2017,09,16,05,40,9.50
2017,09,16,05,41,9.50
2017,09,16,05,42,9.60
2017,09,16,05,43,9.60
2017,09,16,05,44,9.60
2017,09,16,05,45,9.60
2017,09,16,05,46,9.60
2017,09,16,05,47,9.60
2017,09,16,05,48,9.60
2017,09,16,05,49,9.70
2017,09,16,05,50,9.70
2017,09,16,05,51,9.60
2017,09,16,05,52,9.60
2017,09,16,05,53,9.60
2017,09,16,05,54,9.60
2017,09,16,05,55,9.60
2017,09,16,05,56,9.50
2017,09,16,05,57,9.50
2017,09,16,05,58,9.50
2017,09,16,05,59,9.50
2017,09,16,06,00,9.50
2017,09,16,06,01,9.50
2017,09,16,06,02,9.50
2017,09,16,06,03,9.50
2017,09,16,06,04,9.50
2017,09,16,06,05,9.50
2017,09,16,06,06,9.50
2017,09,16,06,07,9.50
2017,09,16,06,08,9.50
2017,09,16,06,09,9.40
2017,09,16,06,10,9.40
2017,09,16,06,11,9.30
2017,09,16,06,12,9.30
2017,09,16,06,13,9.20
2017,09,16,06,14,9.20
2017,09,16,06,15,9.20
2017,09,16,06,16,9.10
2017,09,16,06,17,9.10
2017,09,16,06,18,9.10
2017,09,16,06,19,9.00
2017,09,16,06,20,9.00
2017,09,16,06,21,9.00
2017,09,16,06,22,9.00
2017,09,16,06,23,9.00
2017,09,16,06,24,9.00
2017,09,16,06,25,9.00
2017,09,16,06,26,9.10
2017,09,16,06,27,9.10
2017,09,16,06,28,9.20
2017,09,16,06,29,9.20
2017,09,16,06,30,9.20
2017,09,16,06,31,9.30
2017,09,16,06,32,9.30
2017,09,16,06,33,9.30
2017,09,16,06,34,9.30
2017,09,16,06,35,9.30
2017,09,16,06,36,9.30
2017,09,16,06,37,9.30
2017,09,16,06,38,9.30
2017,09,16,06,39,9.30
2017,09,16,06,40,9.30
2017,09,16,06,41,9.40
2017,09,16,06,42,9.40
2017,09,16,06,43,9.40
2017,09,16,06,44,9.40
2017,09,16,06,45,9.40
2017,09,16,06,46,9.40
2017,09,16,06,47,9.40
2017,09,16,06,48,9.40
2017,09,16,06,49,9.40
2017,09,16,06,50,9.50
2017,09,16,06,51,9.50
2017,09,16,06,52,9.50
2017,09,16,06,53,9.50
2017,09,16,06,54,9.50
2017,09,16,06,55,9.50
2017,09,16,06,56,9.50
2017,09,16,06,57,9.50
2017,09,16,06,58,9.50
2017,09,16,06,59,9.60
2017,09,16,07,00,9.60
2017,09,16,07,01,9.70
2017,09,16,07,02,9.70
2017,09,16,07,03,9.80
2017,09,16,07,04,9.80
2017,09,16,07,05,9.90
2017,09,16,07,06,9.90
2017,09,16,07,07,9.90
2017,09,16,07,08,9.90
2017,09,16,07,09,9.90
2017,09,16,07,10,9.90
2017,09,16,07,11,9.90
2017,09,16,07,12,9.90
2017,09,16,07,13,9.90
2017,09,16,07,14,9.90
2017,09,16,07,15,9.90
2017,09,16,07,16,9.90
2017,09,16,07,17,9.90
2017,09,16,07,18,9.90
2017,09,16,07,19,9.90
2017,09,16,07,20,9.90
2017,09,16,07,21,9.90
2017,09,16,07,22,9.90
2017,09,16,07,23,9.90
2017,09,16,07,24,9.90
2017,09,16,07,25,9.90
2017,09,16,07,26,9.90
2017,09,16,07,27,9.90
2017,09,16,07,28,9.90
2017,09,16,07,29,9.90
2017,09,16,07,30,9.90
2017,09,16,07,31,9.90
2017,09,16,07,32,9.90
2017,09,16,07,33,9.90
2017,09,16,07,34,10.00
2017,09,16,07,35,10.00
2017,09,16,07,36,10.00
2017,09,16,07,37,10.00
2017,09,16,07,38,10.10
2017,09,16,07,39,10.10
2017,09,16,07,40,10.10
2017,09,16,07,41,10.10
2017,09,16,07,42,10.10
2017,09,16,07,43,10.10
2017,09,16,07,44,10.20
2017,09,16,07,45,10.20
2017,09,16,07,46,10.20
2017,09,16,07,47,10.20
2017,09,16,07,48,10.20
2017,09,16,07,49,10.20
2017,09,16,07,50,10.20
2017,09,16,07,51,10.20
2017,09,16,07,52,10.20
2017,09,16,07,53,10.20
2017,09,16,07,54,10.20
2017,09,16,07,55,10.20
2017,09,16,07,56,10.20
2017,09,16,07,57,10.30
2017,09,16,07,58,10.30
2017,09,16,07,59,10.30
2017,09,16,08,00,10.30
2017,09,16,08,01,10.30
2017,09,16,08,02,10.40
2017,09,16,08,03,10.50
2017,09,16,08,04,10.50
2017,09,16,08,05,10.60
2017,09,16,08,06,10.60
2017,09,16,08,07,10.60
2017,09,16,08,08,10.60
2017,09,16,08,09,10.70
2017,09,16,08,10,10.70
2017,09,16,08,11,10.70
2017,09,16,08,12,10.70
2017,09,16,08,13,10.70
2017,09,16,08,14,10.70
2017,09,16,08,15,10.70
2017,09,16,08,16,10.70
2017,09,16,08,17,10.80
2017,09,16,08,18,10.80
2017,09,16,08,19,10.80
2017,09,16,08,20,10.80
2017,09,16,08,21,10.80
2017,09,16,08,22,10.80
2017,09,16,08,23,10.80
2017,09,16,08,24,10.90
2017,09,16,08,25,10.90
2017,09,16,08,26,10.90
2017,09,16,08,27,10.90
2017,09,16,08,28,10.90
2017,09,16,08,29,10.90
2017,09,16,08,30,11.00
2017,09,16,08,31,11.00
2017,09,16,08,32,11.10
2017,09,16,08,33,11.10
2017,09,16,08,34,11.20
2017,09,16,08,35,11.20
2017,09,16,08,36,11.20
2017,09,16,08,37,11.20
2017,09,16,08,38,11.30
2017,09,16,08,39,11.30
2017,09,16,08,40,11.30
2017,09,16,08,41,11.40
2017,09,16,08,42,11.40
2017,09,16,08,43,11.40
2017,09,16,08,44,11.50
2017,09,16,08,45,11.50
2017,09,16,08,46,11.50
2017,09,16,08,47,11.60
2017,09,16,08,48,11.60
2017,09,16,08,49,11.70
2017,09,16,08,50,11.70
2017,09,16,08,51,11.70
2017,09,16,08,52,11.70
2017,09,16,08,53,11.80
2017,09,16,08,54,11.80
2017,09,16,08,55,11.80
2017,09,16,08,56,11.80
2017,09,16,08,57,11.90
2017,09,16,08,58,11.90
2017,09,16,08,59,11.90
2017,09,16,09,00,11.90
2017,09,16,09,01,12.00
2017,09,16,09,02,12.00
2017,09,16,09,03,12.00
2017,09,16,09,04,12.10
2017,09,16,09,05,12.10
2017,09,16,09,06,12.10
2017,09,16,09,07,12.20
2017,09,16,09,08,12.20
2017,09,16,09,09,12.30
2017,09,16,09,10,12.30
2017,09,16,09,11,12.30
2017,09,16,09,12,12.40
2017,09,16,09,13,12.40
2017,09,16,09,14,12.50
2017,09,16,09,15,12.50
2017,09,16,09,16,12.50
2017,09,16,09,17,12.50
2017,09,16,09,18,12.60
2017,09,16,09,19,12.60
2017,09,16,09,20,12.60
2017,09,16,09,21,12.60
2017,09,16,09,22,12.60
2017,09,16,09,23,12.60
2017,09,16,09,24,12.60
2017,09,16,09,25,12.60
2017,09,16,09,26,12.70
2017,09,16,09,27,12.70
2017,09,16,09,28,12.70
2017,09,16,09,29,12.70
2017,09,16,09,30,12.80
2017,09,16,09,31,12.80
2017,09,16,09,32,12.80
2017,09,16,09,33,12.80
2017,09,16,09,34,12.80
2017,09,16,09,35,12.80
2017,09,16,09,36,12.80
2017,09,16,09,37,12.80
2017,09,16,09,38,12.80
2017,09,16,09,39,12.80
2017,09,16,09,40,12.90
2017,09,16,09,41,12.90
2017,09,16,09,42,12.90
2017,09,16,09,43,13.00
2017,09,16,09,44,13.00
2017,09,16,09,45,13.10
2017,09,16,09,46,13.10
2017,09,16,09,47,13.20
2017,09,16,09,48,13.30
2017,09,16,09,49,13.40
2017,09,16,09,50,13.60
2017,09,16,09,51,13.70
2017,09,16,09,52,13.90
2017,09,16,09,53,14.00
2017,09,16,09,54,14.10
2017,09,16,09,55,14.20
2017,09,16,09,56,14.40
2017,09,16,09,57,14.50
2017,09,16,09,58,14.70
2017,09,16,09,59,14.80
2017,09,16,10,00,14.90
2017,09,16,10,01,15.00
2017,09,16,10,02,15.10
2017,09,16,10,03,15.20
2017,09,16,10,04,15.30
2017,09,16,10,05,15.30
2017,09,16,10,06,15.40
2017,09,16,10,07,15.60
2017,09,16,10,08,15.80
2017,09,16,10,09,15.90
2017,09,16,10,10,16.10
2017,09,16,10,11,16.20
2017,09,16,10,12,16.30
2017,09,16,10,13,16.40
2017,09,16,10,14,16.40
2017,09,16,10,15,16.40
2017,09,16,10,16,16.50
2017,09,16,10,17,16.60
2017,09,16,10,18,16.70
2017,09,16,10,19,16.80
2017,09,16,10,20,16.80
2017,09,16,10,21,16.90
2017,09,16,10,22,16.90
2017,09,16,10,23,16.90
2017,09,16,10,24,16.80
2017,09,16,10,25,16.80
2017,09,16,10,26,16.80
2017,09,16,10,27,16.80
2017,09,16,10,28,16.80
2017,09,16,10,29,16.90
2017,09,16,10,30,17.00
2017,09,16,10,31,17.00
2017,09,16,10,32,17.10
2017,09,16,10,33,17.20
2017,09,16,10,34,17.20
2017,09,16,10,35,17.20
2017,09,16,10,36,17.20
2017,09,16,10,37,17.20
2017,09,16,10,38,17.30
2017,09,16,10,39,17.30
2017,09,16,10,40,17.40
2017,09,16,10,41,17.30
2017,09,16,10,42,17.30
2017,09,16,10,43,17.30
2017,09,16,10,44,17.40
2017,09,16,10,45,17.40
2017,09,16,10,46,17.40
2017,09,16,10,47,17.40
2017,09,16,10,48,17.40
2017,09,16,10,49,17.30
2017,09,16,10,50,17.20
2017,09,16,10,51,17.20
2017,09,16,10,52,17.20
2017,09,16,10,53,17.20
2017,09,16,10,54,17.20
2017,09,16,10,55,17.20
2017,09,16,10,56,17.30
2017,09,16,10,57,17.30
2017,09,16,10,58,17.30
2017,09,16,10,59,17.30
2017,09,16,11,00,17.20
2017,09,16,11,01,17.20
2017,09,16,11,02,17.20
2017,09,16,11,03,17.10
2017,09,16,11,04,17.10
2017,09,16,11,05,17.00
2017,09,16,11,06,17.00
2017,09,16,11,07,16.90
2017,09,16,11,08,16.90
2017,09,16,11,09,16.90
2017,09,16,11,10,16.90
2017,09,16,11,11,17.00
2017,09,16,11,12,17.00
2017,09,16,11,13,17.10
2017,09,16,11,14,17.20
2017,09,16,11,15,17.30
2017,09,16,11,16,17.20
2017,09,16,11,17,17.20
2017,09,16,11,18,17.10
2017,09,16,11,19,16.90
2017,09,16,11,20,16.80
2017,09,16,11,21,16.80
2017,09,16,11,22,16.80
2017,09,16,11,23,16.80
2017,09,16,11,24,16.90
2017,09,16,11,25,17.10
2017,09,16,11,26,17.30
2017,09,16,11,27,17.50
2017,09,16,11,28,17.60
2017,09,16,11,29,17.70
2017,09,16,11,30,17.80
2017,09,16,11,31,17.80
2017,09,16,11,32,17.90
2017,09,16,11,33,18.00
2017,09,16,11,34,18.00
2017,09,16,11,35,18.00
2017,09,16,11,36,18.00
2017,09,16,11,37,18.10
2017,09,16,11,38,18.10
2017,09,16,11,39,18.30
2017,09,16,11,40,18.30
2017,09,16,11,41,18.40
2017,09,16,11,42,18.60
2017,09,16,11,43,18.60
2017,09,16,11,44,18.60
2017,09,16,11,45,18.60
2017,09,16,11,46,18.60
2017,09,16,11,47,18.70
2017,09,16,11,48,18.80
2017,09,16,11,49,18.90
2017,09,16,11,50,18.90
2017,09,16,11,51,19.00
2017,09,16,11,52,19.10
2017,09,16,11,53,19.20
2017,09,16,11,54,19.30
2017,09,16,11,55,19.30
2017,09,16,11,56,19.40
2017,09,16,11,57,19.50
2017,09,16,11,58,19.60
2017,09,16,11,59,19.60
2017,09,16,12,00,19.60
2017,09,16,12,01,19.60
2017,09,16,12,02,19.50
2017,09,16,12,03,19.50
2017,09,16,12,04,19.40
2017,09,16,12,05,19.30
2017,09,16,12,06,19.30
2017,09,16,12,07,19.20
2017,09,16,12,08,19.20
2017,09,16,12,09,19.20
2017,09,16,12,10,19.20
2017,09,16,12,11,19.20
2017,09,16,12,12,19.30
2017,09,16,12,13,19.40
2017,09,16,12,14,19.50
2017,09,16,12,15,19.60
2017,09,16,12,16,19.70
2017,09,16,12,17,19.80
2017,09,16,12,18,19.80
2017,09,16,12,19,19.90
2017,09,16,12,20,19.90
2017,09,16,12,21,19.90
2017,09,16,12,22,19.90
2017,09,16,12,23,19.90
2017,09,16,12,24,19.90
2017,09,16,12,25,19.90
2017,09,16,12,26,19.90
2017,09,16,12,27,19.90
2017,09,16,12,28,19.80
2017,09,16,12,29,19.80
2017,09,16,12,30,19.80
2017,09,16,12,31,19.90
2017,09,16,12,32,20.00
2017,09,16,12,33,20.20
2017,09,16,12,34,20.40
2017,09,16,12,35,20.50
2017,09,16,12,36,20.60
2017,09,16,12,37,20.70
2017,09,16,12,38,20.80
2017,09,16,12,39,20.80
2017,09,16,12,40,20.80
2017,09,16,12,41,20.80
2017,09,16,12,42,20.90
2017,09,16,12,43,21.00
2017,09,16,12,44,21.00
2017,09,16,12,45,21.10
2017,09,16,12,46,20.90
2017,09,16,12,47,20.80
2017,09,16,12,48,20.70
2017,09,16,12,49,20.70
2017,09,16,12,50,20.70
2017,09,16,12,51,20.80
2017,09,16,12,52,20.70
2017,09,16,12,53,20.50
2017,09,16,12,54,20.40
2017,09,16,12,55,20.40
2017,09,16,12,56,20.30
2017,09,16,12,57,20.30
2017,09,16,12,58,20.40
2017,09,16,12,59,20.50
2017,09,16,13,00,20.50
2017,09,16,13,01,20.60
2017,09,16,13,02,20.70
2017,09,16,13,03,20.70
2017,09,16,13,04,20.60
2017,09,16,13,05,20.60
2017,09,16,13,06,20.50
2017,09,16,13,07,20.50
2017,09,16,13,08,20.60
2017,09,16,13,09,20.60
2017,09,16,13,10,20.60
2017,09,16,13,11,20.60
2017,09,16,13,12,20.60
2017,09,16,13,13,20.50
2017,09,16,13,14,20.50
2017,09,16,13,15,20.50
2017,09,16,13,16,20.50
2017,09,16,13,17,20.50
2017,09,16,13,18,20.60
2017,09,16,13,19,20.60
2017,09,16,13,20,20.80
2017,09,16,13,21,20.70
2017,09,16,13,22,20.60
2017,09,16,13,23,20.70
2017,09,16,13,24,20.70
2017,09,16,13,25,20.70
2017,09,16,13,26,20.70
2017,09,16,13,27,20.70
2017,09,16,13,28,20.70
2017,09,16,13,29,20.70
2017,09,16,13,30,20.70
2017,09,16,13,31,20.90
2017,09,16,13,32,20.90
2017,09,16,13,33,20.90
2017,09,16,13,34,20.90
2017,09,16,13,35,20.90
2017,09,16,13,36,20.90
2017,09,16,13,37,20.90
2017,09,16,13,38,21.00
2017,09,16,13,39,21.00
2017,09,16,13,40,21.10
2017,09,16,13,41,21.10
2017,09,16,13,42,21.20
2017,09,16,13,43,21.20
2017,09,16,13,44,21.30
2017,09,16,13,45,21.40
2017,09,16,13,46,21.30
2017,09,16,13,47,21.20
2017,09,16,13,48,21.10
2017,09,16,13,49,21.10
2017,09,16,13,50,21.00
2017,09,16,13,51,21.00
2017,09,16,13,52,21.00
2017,09,16,13,53,21.10
2017,09,16,13,54,21.00
2017,09,16,13,55,20.90
2017,09,16,13,56,20.90
2017,09,16,13,57,20.90
2017,09,16,13,58,20.90
2017,09,16,13,59,21.00
2017,09,16,14,00,21.00
2017,09,16,14,01,21.00
2017,09,16,14,02,20.90
2017,09,16,14,03,21.00
2017,09,16,14,04,21.20
2017,09,16,14,05,21.30
2017,09,16,14,06,21.40
2017,09,16,14,07,21.40
2017,09,16,14,08,21.30
2017,09,16,14,09,21.20
2017,09,16,14,10,21.10
2017,09,16,14,11,21.20
2017,09,16,14,12,21.20
2017,09,16,14,13,21.20
2017,09,16,14,14,21.20
2017,09,16,14,15,21.20
2017,09,16,14,16,21.20
2017,09,16,14,17,21.20
2017,09,16,14,18,21.60
2017,09,16,14,19,21.70
2017,09,16,14,20,21.70
2017,09,16,14,21,21.60
2017,09,16,14,22,21.60
2017,09,16,14,23,21.60
2017,09,16,14,24,21.60
2017,09,16,14,25,21.50
2017,09,16,14,26,21.60
2017,09,16,14,27,21.50
2017,09,16,14,28,21.40
2017,09,16,14,29,21.40
2017,09,16,14,30,21.30
2017,09,16,14,31,21.40
2017,09,16,14,32,21.40
2017,09,16,14,33,21.40
2017,09,16,14,34,21.40
2017,09,16,14,35,21.40
2017,09,16,14,36,21.40
2017,09,16,14,37,21.40
2017,09,16,14,38,21.50
2017,09,16,14,39,21.50
2017,09,16,14,40,21.50
2017,09,16,14,41,21.50
2017,09,16,14,42,21.50
2017,09,16,14,43,21.60
2017,09,16,14,44,21.70
2017,09,16,14,45,21.80
2017,09,16,14,46,21.90
2017,09,16,14,47,21.90
2017,09,16,14,48,21.90
2017,09,16,14,49,21.90
2017,09,16,14,50,22.00
2017,09,16,14,51,21.90
2017,09,16,14,52,21.80
2017,09,16,14,53,21.70
2017,09,16,14,54,21.70
2017,09,16,14,55,21.70
2017,09,16,14,56,21.70
2017,09,16,14,57,21.60
2017,09,16,14,58,21.60
2017,09,16,14,59,21.50
2017,09,16,15,00,21.50
2017,09,16,15,01,21.50
2017,09,16,15,02,21.60
2017,09,16,15,03,21.60
2017,09,16,15,04,21.70
2017,09,16,15,05,21.70
2017,09,16,15,06,21.80
2017,09,16,15,07,21.90
2017,09,16,15,08,22.10
2017,09,16,15,09,22.20
2017,09,16,15,10,22.30
2017,09,16,15,11,22.30
2017,09,16,15,12,22.20
2017,09,16,15,13,22.10
2017,09,16,15,14,22.00
2017,09,16,15,15,21.90
2017,09,16,15,16,21.90
2017,09,16,15,17,22.00
2017,09,16,15,18,21.90
2017,09,16,15,19,21.90
2017,09,16,15,20,21.90
2017,09,16,15,21,21.90
2017,09,16,15,22,21.90
2017,09,16,15,23,22.00
2017,09,16,15,24,22.00
2017,09,16,15,25,22.10
2017,09,16,15,26,22.10
2017,09,16,15,27,22.10
2017,09,16,15,28,22.00
2017,09,16,15,29,22.00
2017,09,16,15,30,22.10
2017,09,16,15,31,22.10
2017,09,16,15,32,22.20
2017,09,16,15,33,22.20
2017,09,16,15,34,22.20
2017,09,16,15,35,22.30
2017,09,16,15,36,22.30
2017,09,16,15,37,22.40
2017,09,16,15,38,22.30
2017,09,16,15,39,22.30
2017,09,16,15,40,22.30
2017,09,16,15,41,22.20
2017,09,16,15,42,22.20
2017,09,16,15,43,22.30
2017,09,16,15,44,22.30
2017,09,16,15,45,22.30
2017,09,16,15,46,22.30
2017,09,16,15,47,22.30
2017,09,16,15,48,22.30
2017,09,16,15,49,22.30
2017,09,16,15,50,22.30
2017,09,16,15,51,22.30
2017,09,16,15,52,22.40
2017,09,16,15,53,22.40
2017,09,16,15,54,22.40
2017,09,16,15,55,22.50
2017,09,16,15,56,22.50
2017,09,16,15,57,22.50
2017,09,16,15,58,22.60
2017,09,16,15,59,22.60
2017,09,16,16,00,22.60
2017,09,16,16,01,22.50
2017,09,16,16,02,22.50
2017,09,16,16,03,22.40
2017,09,16,16,04,22.30
2017,09,16,16,05,22.30
2017,09,16,16,06,22.30
2017,09,16,16,07,22.30
2017,09,16,16,08,22.30
2017,09,16,16,09,22.30
2017,09,16,16,10,22.40
2017,09,16,16,11,22.40
2017,09,16,16,12,22.40
2017,09,16,16,13,22.50
2017,09,16,16,14,22.50
2017,09,16,16,15,22.60
2017,09,16,16,16,22.60
2017,09,16,16,17,22.60
2017,09,16,16,18,22.60
2017,09,16,16,19,22.60
2017,09,16,16,20,22.60
2017,09,16,16,21,22.60
2017,09,16,16,22,22.70
2017,09,16,16,23,22.80
2017,09,16,16,24,22.80
2017,09,16,16,25,22.80
2017,09,16,16,26,22.90
2017,09,16,16,27,22.90
2017,09,16,16,28,22.90
2017,09,16,16,29,22.80
2017,09,16,16,30,22.80
2017,09,16,16,31,22.80
2017,09,16,16,32,22.80
2017,09,16,16,33,22.80
2017,09,16,16,34,22.90
2017,09,16,16,35,22.90
2017,09,16,16,36,22.90
2017,09,16,16,37,22.90
2017,09,16,16,38,22.90
2017,09,16,16,39,23.00
2017,09,16,16,40,23.00
2017,09,16,16,41,22.90
2017,09,16,16,42,22.90
2017,09,16,16,43,22.80
2017,09,16,16,44,22.70
2017,09,16,16,45,22.70
2017,09,16,16,46,22.70
2017,09,16,16,47,22.70
2017,09,16,16,48,22.70
2017,09,16,16,49,22.70
2017,09,16,16,50,22.80
2017,09,16,16,51,22.80
2017,09,16,16,52,22.80
2017,09,16,16,53,22.80
2017,09,16,16,54,22.70
2017,09,16,16,55,22.70
2017,09,16,16,56,22.60
2017,09,16,16,57,22.50
2017,09,16,16,58,22.40
2017,09,16,16,59,22.40
2017,09,16,17,00,22.40
2017,09,16,17,01,22.40
2017,09,16,17,02,22.40
2017,09,16,17,03,22.50
2017,09,16,17,04,22.50
2017,09,16,17,05,22.50
2017,09,16,17,06,22.50
2017,09,16,17,07,22.50
2017,09,16,17,08,22.50
2017,09,16,17,09,22.50
2017,09,16,17,10,22.50
2017,09,16,17,11,22.50
2017,09,16,17,12,22.60
2017,09,16,17,13,22.60
2017,09,16,17,14,22.60
2017,09,16,17,15,22.60
2017,09,16,17,16,22.60
2017,09,16,17,17,22.70
2017,09,16,17,18,22.70
2017,09,16,17,19,22.70
2017,09,16,17,20,22.70
2017,09,16,17,21,22.80
2017,09,16,17,22,22.80
2017,09,16,17,23,22.80
2017,09,16,17,24,22.90
2017,09,16,17,25,23.00
2017,09,16,17,26,23.10
2017,09,16,17,27,23.20
2017,09,16,17,28,23.30
2017,09,16,17,29,23.30